HULIANGWANG DIGUI-06

Last updated on Thu Jan 16 2025 00:02:04 GMT+0000 (Coordinated Universal Time)

1 62328U 24240F 25014.71676941 .00000087 00000+0 13375-3 0 9992 2 62328 86.5020 158.6892 0010010 212.9777 147.0742 13.38829140 3928
UTC large
Height (km)
Speed (km/s)
/
Latitude / Longitude
Inclination (degrees)
Orbital Period (minutes)
Azimuth
Elevation
Range (km)
Doppler Factor

Next 0 passes for location: London (51.5072 / 0.1276)

Sorry there are no passes over London.